BAW891 UGTB-EGLL

Flight info

Callsign BAW891
Flight time N/A
Altitude 38000
Route ZAGOT1 ZAGOT DCT BARUS N11 ROLIN UN644 INB UL746 ODERO DCT OPT DCT ENIMA DCT ERUKO DCT GESBA DCT MOPUG DCT NALOX DCT GOTAR DCT ERKIR DCT KPT L856 RAVED Y112 HOC DCT LUL DCT RLP DCT ROTSI DCT KOTUN DCT NINAL DCT ABNUR DCT DIMAL DCT ALESO ALESO1H
Aircraft A20N/M-SDGIJ1LRWXY/SB1

Departure

Time 2026-04-12 10:16
Airport Tbilisi International Airport (UGTB)

Arrival

Time N/A
Airport London Heathrow Airport (EGLL)
Time Latitude Longitude Altitude Speed Heading
2026-04-12 09:53 41.66832 44.96454 1518 ft 0 kts 44°
2026-04-12 10:08 41.66820 44.96439 1520 ft 4 kts 46°
2026-04-12 10:09 41.66803 44.96412 1519 ft 4 kts 53°
2026-04-12 10:09 41.66788 44.96382 1522 ft 4 kts 68°
2026-04-12 10:09 41.66783 44.96350 1521 ft 4 kts 114°
2026-04-12 10:09 41.66787 44.96340 1525 ft 1 kts 134°
2026-04-12 10:12 41.66786 44.96341 1519 ft 1 kts 134°
2026-04-12 10:12 41.66778 44.96352 1521 ft 3 kts 134°
2026-04-12 10:12 41.66753 44.96387 1526 ft 8 kts 134°
2026-04-12 10:13 41.66691 44.96429 1523 ft 13 kts 180°
2026-04-12 10:13 41.66594 44.96401 1520 ft 15 kts 192°
2026-04-12 10:13 41.66493 44.96371 1520 ft 15 kts 193°
2026-04-12 10:13 41.66381 44.96333 1524 ft 18 kts 194°
2026-04-12 10:14 41.66249 44.96297 1521 ft 20 kts 180°
2026-04-12 10:14 41.66123 44.96362 1523 ft 19 kts 138°
2026-04-12 10:14 41.66030 44.96483 1522 ft 18 kts 136°
2026-04-12 10:14 41.65944 44.96588 1526 ft 16 kts 140°
2026-04-12 10:15 41.65860 44.96571 1524 ft 12 kts 219°
2026-04-12 10:15 41.65845 44.96478 1524 ft 10 kts 282°
2026-04-12 10:15 41.65876 44.96417 1519 ft 7 kts 316°
2026-04-12 10:15 41.65999 44.96261 1522 ft 55 kts 317°
2026-04-12 10:16 41.66437 44.95710 1525 ft 115 kts 317°
2026-04-12 10:16 41.67140 44.94827 1620 ft 153 kts 316°
2026-04-12 10:16 41.67909 44.93832 2199 ft 157 kts 316°
2026-04-12 10:16 41.68695 44.92814 2844 ft 162 kts 316°
2026-04-12 10:17 41.69576 44.91702 3252 ft 185 kts 317°
2026-04-12 10:17 41.70577 44.90442 3702 ft 209 kts 318°
2026-04-12 10:17 41.71711 44.89022 4069 ft 236 kts 319°
2026-04-12 10:17 41.72952 44.87489 4598 ft 255 kts 319°
2026-04-12 10:18 41.74290 44.85845 5353 ft 265 kts 319°
2026-04-12 10:18 41.75652 44.84152 6251 ft 269 kts 319°
2026-04-12 10:18 41.77035 44.82442 7124 ft 272 kts 318°
2026-04-12 10:18 41.78427 44.80709 7963 ft 276 kts 316°
2026-04-12 10:19 41.79588 44.78703 8916 ft 273 kts 293°
2026-04-12 10:19 41.80008 44.76209 9651 ft 280 kts 269°
2026-04-12 10:19 41.80022 44.73568 10371 ft 290 kts 267°
2026-04-12 10:19 41.79937 44.70796 10674 ft 314 kts 265°
2026-04-12 10:20 41.79818 44.67780 10999 ft 332 kts 265°
2026-04-12 10:20 41.79714 44.64667 11703 ft 337 kts 265°
2026-04-12 10:20 41.79627 44.61498 12430 ft 343 kts 265°
2026-04-12 10:20 41.79552 44.58286 13145 ft 348 kts 265°
2026-04-12 10:21 41.79482 44.55032 13881 ft 350 kts 265°
2026-04-12 10:21 41.79412 44.51746 14461 ft 356 kts 265°
2026-04-12 10:21 41.79341 44.48429 15144 ft 358 kts 265°
2026-04-12 10:21 41.79267 44.45086 15833 ft 360 kts 264°
2026-04-12 10:22 41.79190 44.41723 16507 ft 363 kts 264°
2026-04-12 10:22 41.79112 44.38373 17159 ft 366 kts 264°
2026-04-12 10:22 41.79031 44.34956 17801 ft 369 kts 264°
2026-04-12 10:22 41.78948 44.31504 18420 ft 372 kts 264°
2026-04-12 10:23 41.78865 44.28040 19021 ft 373 kts 263°
2026-04-12 10:23 41.78781 44.24563 19628 ft 374 kts 263°
2026-04-12 10:23 41.78695 44.21073 20168 ft 375 kts 263°
2026-04-12 10:23 41.78606 44.17571 20778 ft 376 kts 263°
2026-04-12 10:24 41.78554 44.14063 21418 ft 380 kts 266°
2026-04-12 10:24 41.78789 44.10546 21916 ft 388 kts 272°
2026-04-12 10:24 41.79150 44.06954 22470 ft 390 kts 271°
2026-04-12 10:24 41.79507 44.03337 23024 ft 393 kts 271°
2026-04-12 10:25 41.79863 43.99693 23574 ft 396 kts 271°
2026-04-12 10:25 41.80218 43.96018 24005 ft 399 kts 271°
2026-04-12 10:25 41.80573 43.92314 24443 ft 402 kts 271°
2026-04-12 10:25 41.80928 43.88594 24854 ft 404 kts 271°
2026-04-12 10:26 41.81281 43.84887 25241 ft 407 kts 270°
2026-04-12 10:26 41.81640 43.81125 25713 ft 408 kts 270°
2026-04-12 10:26 41.81999 43.77333 26124 ft 412 kts 270°
2026-04-12 10:26 41.82359 43.73504 26454 ft 416 kts 270°
2026-04-12 10:27 41.82720 43.69647 26868 ft 418 kts 270°
2026-04-12 10:27 41.83082 43.65773 27190 ft 420 kts 270°
2026-04-12 10:27 41.83444 43.61873 27555 ft 422 kts 270°
2026-04-12 10:27 41.83809 43.57956 27933 ft 424 kts 270°
2026-04-12 10:28 41.84175 43.54018 28239 ft 427 kts 269°
2026-04-12 10:28 41.84534 43.50115 28573 ft 428 kts 269°
2026-04-12 10:28 41.84899 43.46139 28869 ft 430 kts 269°
2026-04-12 10:28 41.85264 43.42152 29179 ft 432 kts 269°
2026-04-12 10:29 41.85628 43.38139 29416 ft 435 kts 269°
2026-04-12 10:29 41.85993 43.34117 29938 ft 433 kts 269°
2026-04-12 10:29 41.86358 43.30101 30260 ft 435 kts 269°
2026-04-12 10:29 41.86722 43.26051 30414 ft 438 kts 269°
2026-04-12 10:30 41.87085 43.21996 30756 ft 437 kts 269°
2026-04-12 10:30 41.87446 43.17936 31002 ft 439 kts 269°
2026-04-12 10:30 41.87804 43.13930 31386 ft 438 kts 269°
2026-04-12 10:30 41.88164 43.09864 31685 ft 439 kts 269°
2026-04-12 10:31 41.88520 43.05800 32069 ft 439 kts 269°
2026-04-12 10:31 41.88876 43.01737 32426 ft 438 kts 270°
2026-04-12 10:31 41.89230 42.97676 32797 ft 438 kts 270°
2026-04-12 10:31 41.89580 42.93624 33146 ft 436 kts 270°
2026-04-12 10:32 41.89927 42.89593 33460 ft 435 kts 270°
2026-04-12 10:32 41.90240 42.85560 33722 ft 432 kts 267°
2026-04-12 10:32 41.90297 42.81605 33944 ft 428 kts 262°
2026-04-12 10:32 41.90133 42.77634 34209 ft 426 kts 261°
2026-04-12 10:33 41.89971 42.73664 34439 ft 426 kts 261°
2026-04-12 10:33 41.89818 42.69701 34625 ft 426 kts 261°
2026-04-12 10:33 41.89664 42.65737 34846 ft 425 kts 261°
2026-04-12 10:33 41.89507 42.61776 35006 ft 426 kts 262°
2026-04-12 10:34 41.89347 42.57812 35242 ft 425 kts 262°
2026-04-12 10:34 41.89185 42.53848 35409 ft 426 kts 262°
2026-04-12 10:34 41.89023 42.49936 35594 ft 426 kts 262°
2026-04-12 10:34 41.88857 42.45962 35774 ft 427 kts 262°
2026-04-12 10:35 41.88690 42.41984 35948 ft 426 kts 262°
2026-04-12 10:35 41.88522 42.38016 36090 ft 427 kts 262°
2026-04-12 10:35 41.88353 42.34043 36262 ft 426 kts 262°
2026-04-12 10:35 41.88183 42.30073 36369 ft 427 kts 262°
2026-04-12 10:36 41.88011 42.26097 36483 ft 427 kts 262°
2026-04-12 10:36 41.87665 42.18195 36783 ft 427 kts 262°
2026-04-12 10:36 41.87487 42.14214 36914 ft 428 kts 262°
2026-04-12 10:37 41.87309 42.10231 37057 ft 428 kts 262°
2026-04-12 10:37 41.87130 42.06247 37192 ft 428 kts 262°
2026-04-12 10:37 41.86949 42.02258 37308 ft 429 kts 262°
2026-04-12 10:37 41.86767 41.98271 37489 ft 428 kts 263°
2026-04-12 10:38 41.86646 41.95630 37561 ft 429 kts 263°
2026-04-12 10:38 41.86461 41.91641 37694 ft 429 kts 263°
2026-04-12 10:38 41.86214 41.86356 37860 ft 429 kts 263°
2026-04-12 10:38 41.86026 41.82365 37978 ft 429 kts 263°
2026-04-12 10:39 41.85837 41.78376 38094 ft 429 kts 263°
2026-04-12 10:39 41.85519 41.71741 38136 ft 428 kts 263°
2026-04-12 10:40 41.85132 41.63778 38140 ft 428 kts 263°
2026-04-12 10:40 41.84740 41.55810 38140 ft 428 kts 263°
2026-04-12 10:41 41.84277 41.46550 38139 ft 429 kts 263°
2026-04-12 10:41 41.83938 41.39866 38142 ft 429 kts 263°
2026-04-12 10:42 41.83531 41.31932 38138 ft 429 kts 263°
2026-04-12 10:42 41.83116 41.23942 38136 ft 430 kts 263°
2026-04-12 10:43 41.82481 41.11956 38136 ft 430 kts 263°
2026-04-12 10:43 41.82052 41.03965 38136 ft 430 kts 263°
2026-04-12 10:44 41.81618 40.96027 38115 ft 430 kts 263°
2026-04-12 10:44 41.81177 40.88025 38115 ft 430 kts 263°
2026-04-12 10:45 41.80731 40.80023 38118 ft 431 kts 263°
2026-04-12 10:45 41.80278 40.72020 38121 ft 431 kts 264°
2026-04-12 10:46 41.79983 40.64053 38123 ft 432 kts 270°
2026-04-12 10:46 41.80334 40.56010 38124 ft 433 kts 271°
2026-04-12 10:47 41.80692 40.47954 38126 ft 433 kts 271°
2026-04-12 10:47 41.81036 40.39947 38129 ft 433 kts 271°
2026-04-12 10:48 41.81376 40.31876 38128 ft 434 kts 271°
2026-04-12 10:48 41.81711 40.23806 38131 ft 434 kts 271°
2026-04-12 10:49 41.82040 40.15727 38140 ft 434 kts 271°
2026-04-12 10:49 41.82362 40.07696 38140 ft 435 kts 271°
2026-04-12 10:50 41.82679 39.99608 38142 ft 434 kts 271°
2026-04-12 10:50 41.82991 39.91523 38144 ft 434 kts 271°
2026-04-12 10:51 41.83297 39.83438 38146 ft 434 kts 271°
2026-04-12 10:51 41.83597 39.75355 38146 ft 434 kts 271°
2026-04-12 10:52 41.83889 39.67329 38153 ft 434 kts 271°
2026-04-12 10:52 41.84178 39.59250 38145 ft 433 kts 271°
2026-04-12 10:53 41.84460 39.51183 38148 ft 433 kts 271°
2026-04-12 10:53 41.84734 39.43125 38146 ft 432 kts 271°
2026-04-12 10:54 41.85005 39.35126 38138 ft 432 kts 271°
2026-04-12 10:54 41.85273 39.27079 38149 ft 432 kts 271°
2026-04-12 10:55 41.85533 39.19035 38139 ft 432 kts 271°
2026-04-12 10:55 41.85788 39.10992 38151 ft 431 kts 271°
2026-04-12 10:56 41.86034 39.03009 38127 ft 431 kts 271°
2026-04-12 10:56 41.86277 38.94976 38141 ft 431 kts 271°
2026-04-12 10:57 41.86515 38.86938 38137 ft 431 kts 271°
2026-04-12 10:57 41.86746 38.78897 38139 ft 431 kts 271°
2026-04-12 10:58 41.86971 38.70912 38143 ft 431 kts 271°
2026-04-12 10:58 41.87191 38.62868 38143 ft 432 kts 271°
2026-04-12 10:59 41.87407 38.54820 38146 ft 432 kts 271°
2026-04-12 10:59 41.87616 38.46767 38153 ft 432 kts 271°
2026-04-12 11:00 41.87819 38.38761 38168 ft 432 kts 271°
2026-04-12 11:00 41.88018 38.30694 38164 ft 433 kts 271°
2026-04-12 11:01 41.88211 38.22617 38159 ft 433 kts 271°
2026-04-12 11:01 41.88399 38.14542 38157 ft 433 kts 271°
2026-04-12 11:02 41.88580 38.06512 38157 ft 433 kts 271°
2026-04-12 11:02 41.88756 37.98427 38157 ft 434 kts 271°
2026-04-12 11:03 41.88927 37.90341 38161 ft 434 kts 271°
2026-04-12 11:03 41.89092 37.82248 38162 ft 433 kts 271°
2026-04-12 11:04 41.89250 37.74223 38165 ft 433 kts 271°
2026-04-12 11:04 41.89404 37.66137 38168 ft 433 kts 271°
2026-04-12 11:05 41.89552 37.58056 38169 ft 433 kts 271°
2026-04-12 11:05 41.89694 37.49980 38169 ft 433 kts 271°
2026-04-12 11:06 41.89830 37.41955 38173 ft 433 kts 271°
2026-04-12 11:06 41.89961 37.33883 38171 ft 432 kts 271°
2026-04-12 11:07 41.90086 37.25817 38165 ft 432 kts 271°
2026-04-12 11:07 41.90205 37.17755 38162 ft 432 kts 271°
2026-04-12 11:08 41.90319 37.09750 38162 ft 432 kts 271°
2026-04-12 11:08 41.90471 37.01692 38163 ft 432 kts 274°
2026-04-12 11:09 41.91051 36.93673 38163 ft 432 kts 276°
2026-04-12 11:09 41.91664 36.85661 38165 ft 432 kts 275°
2026-04-12 11:10 41.92216 36.77689 38165 ft 432 kts 275°
2026-04-12 11:10 41.92749 36.69660 38168 ft 432 kts 275°
2026-04-12 11:11 41.93276 36.61623 38175 ft 432 kts 275°
2026-04-12 11:11 41.93799 36.53589 38167 ft 432 kts 275°
2026-04-12 11:12 41.94313 36.45605 38173 ft 432 kts 275°
2026-04-12 11:12 41.94825 36.37563 38172 ft 432 kts 275°
2026-04-12 11:13 41.95331 36.29515 38174 ft 432 kts 275°
2026-04-12 11:13 41.95832 36.21459 38171 ft 432 kts 275°
2026-04-12 11:14 41.96324 36.13463 38171 ft 432 kts 275°
2026-04-12 11:14 41.96813 36.05407 38174 ft 433 kts 275°
2026-04-12 11:15 41.97297 35.97355 38174 ft 433 kts 275°
2026-04-12 11:15 41.97774 35.89300 38178 ft 432 kts 275°
2026-04-12 11:16 41.98247 35.81248 38181 ft 432 kts 275°
2026-04-12 11:16 41.98711 35.73265 38177 ft 432 kts 275°
2026-04-12 11:17 41.99171 35.65220 38176 ft 432 kts 275°
2026-04-12 11:17 41.99626 35.57176 38175 ft 431 kts 275°
2026-04-12 11:18 42.00075 35.49140 38176 ft 431 kts 275°
2026-04-12 11:18 42.00515 35.41165 38174 ft 431 kts 275°
2026-04-12 11:19 42.00952 35.33128 38174 ft 431 kts 275°
2026-04-12 11:19 42.01384 35.25104 38170 ft 430 kts 275°
2026-04-12 11:20 42.01808 35.17080 38183 ft 429 kts 276°
2026-04-12 11:20 42.02195 35.09120 38180 ft 430 kts 273°
2026-04-12 11:21 42.01993 35.01076 38179 ft 431 kts 268°
2026-04-12 11:21 42.01610 34.93037 38173 ft 431 kts 268°
2026-04-12 11:22 42.01231 34.84994 38172 ft 431 kts 268°
2026-04-12 11:22 42.00843 34.76962 38170 ft 430 kts 268°
2026-04-12 11:23 42.00450 34.68994 38173 ft 430 kts 268°
2026-04-12 11:23 42.00049 34.60985 38178 ft 429 kts 269°
2026-04-12 11:24 41.99644 34.52986 38173 ft 429 kts 269°